This is the latest recevied weather packets stored in our database for station/object N8JE-13. If no packets are shown the sender has not sent any weather packets the latest 1 day(s).
| Time | Temp. | Humidity | Pressure | Rain* | Wind** | Luminosity | Snow |
|---|---|---|---|---|---|---|---|
| 1778018152 | 15.56° C | 93% | 1006.7 hPa | 0.76 mm | 0.45 m/s, 233° | - | - |
| 1778017852 | 15° C | 93% | 1006.7 hPa | 0.76 mm | 0 m/s | - | - |
| 1778017552 | 15° C | 92% | 1006.7 hPa | 1.02 mm | 1.34 m/s, 233° | - | - |
| 1778017250 | 15.56° C | 92% | 1006.6 hPa | 1.27 mm | 0.89 m/s, 260° | - | - |
| 1778016952 | 15.56° C | 92% | 1006.6 hPa | 1.52 mm | 2.24 m/s, 256° | - | - |
| 1778016652 | 15.56° C | 92% | 1006.5 hPa | 1.78 mm | 0.89 m/s, 217° | - | - |
| 1778016351 | 15.56° C | 92% | 1006.6 hPa | 2.03 mm | 0.89 m/s, 221° | - | - |
| 1778016051 | 15.56° C | 92% | 1006.6 hPa | 2.54 mm | 0.45 m/s, 243° | - | - |
| 1778015751 | 15.56° C | 91% | 1006.6 hPa | 3.56 mm | 2.24 m/s, 241° | - | - |
| 1778015451 | 15.56° C | 91% | 1006.5 hPa | 4.32 mm | 2.24 m/s, 234° | - | - |
| 1778015151 | 15.56° C | 91% | 1006.5 hPa | 4.57 mm | 0.45 m/s, 215° | - | - |
| 1778014852 | 15.56° C | 90% | 1006.6 hPa | 4.57 mm | 1.34 m/s, 231° | - | - |
| 1778014551 | 15.56° C | 90% | 1006.6 hPa | 4.57 mm | 1.34 m/s, 257° | - | - |
| 1778014251 | 15.56° C | 90% | 1006.7 hPa | 4.57 mm | 2.24 m/s, 240° | - | - |
| 1778013951 | 16.11° C | 89% | 1006.8 hPa | 4.32 mm | 0.89 m/s, 200° | - | - |
| 1778013651 | 16.11° C | 89% | 1006.9 hPa | 3.81 mm | 0.89 m/s, 253° | - | - |
| 1778013350 | 16.11° C | 88% | 1006.9 hPa | 3.56 mm | 1.34 m/s, 269° | - | - |
| 1778013051 | 16.11° C | 87% | 1006.9 hPa | 3.3 mm | 0.45 m/s, 250° | - | - |
| 1778012751 | 16.67° C | 85% | 1006.9 hPa | 3.05 mm | 1.34 m/s, 219° | - | - |
| 1778012451 | 16.67° C | 83% | 1006.8 hPa | 2.54 mm | 1.34 m/s, 239° | - | - |
| 1778012152 | 17.78° C | 79% | 1006.7 hPa | 1.52 mm | 2.24 m/s, 272° | - | - |
| 1778011851 | 18.33° C | 77% | 1006.5 hPa | 0.76 mm | 0.45 m/s, 261° | - | - |
| 1778011551 | 18.33° C | 74% | 1006.2 hPa | 0.25 mm | 0.45 m/s, 257° | - | - |
| 1778011252 | 18.89° C | 72% | 1006.3 hPa | 0.25 mm | 0.89 m/s, 273° | - | - |
| 1778010952 | 18.89° C | 71% | 1006.2 hPa | 0 mm | 2.24 m/s, 241° | - | - |
* Rain latest hour (hover to see other rain measurements)
** Current wind speed in m/s (hover to see current wind gust speed)